CW5244 Weather Reports


time (UTC)temp
C
wind
direction
speed
KPH
gust
KPH
rain 1hr
cm
rain 24hr
cm
rain mn
cm
humidity
%
barometer
mb
20260906065501 27 186 0.0 1.6 0.00 0.03 0.00 82 1011.8
20260906065006 27 186 0.0 3.2 0.00 0.03 0.00 83 1011.8
20260906064603 27 181 0.0 3.2 0.00 0.03 0.00 83 1011.8
20260906064005 27 99 0.0 0.0 0.00 0.03 0.00 83 1011.6
20260906063511 27 99 0.0 0.0 0.00 0.03 0.00 83 1011.7
20260906063018 27 99 0.0 0.0 0.00 0.03 0.00 83 1011.8
20260906062526 27 99 0.0 0.0 0.00 0.03 0.00 83 1011.8
20260906062028 27 99 0.0 0.0 0.00 0.03 0.00 82 1011.9
20260906061539 27 99 0.0 0.0 0.00 0.03 0.00 82 1012.0
20260906061041 27 99 0.0 0.0 0.00 0.03 0.00 82 1012.0
20260906060552 27 99 0.0 0.0 0.00 0.03 0.00 81 1012.0
20260906060056 27 99 0.0 0.0 0.00 0.03 0.00 81 1012.1
20260906055607 27 99 0.0 0.0 0.00 0.03 0.00 81 1012.0
20260906055005 27 99 0.0 0.0 0.00 0.03 0.00 81 1012.0
20260906054515 27 99 0.0 0.0 0.00 0.03 0.00 81 1012.0
20260906054019 27 99 0.0 0.0 0.00 0.03 0.00 81 1012.0
20260906053527 27 99 0.0 0.0 0.00 0.03 0.00 81 1012.0
20260906053033 27 99 0.0 0.0 0.00 0.03 0.00 81 1011.9
20260906052540 27 99 0.0 0.0 0.00 0.03 0.00 81 1011.9
20260906052047 27 99 0.0 0.0 0.00 0.03 0.00 81 1012.0
20260906051555 27 99 0.0 1.6 0.00 0.03 0.00 81 1011.8
20260906051102 27 113 0.0 0.0 0.00 0.03 0.00 80 1011.8
20260906050504 27 113 0.0 1.6 0.00 0.03 0.03 80 1011.9
20260906050011 27 113 0.0 1.6 0.00 0.03 0.03 80 1011.9
20260906045501 28 43 0.0 1.6 0.00 0.03 0.03 80 1011.8
20260906045008 28 40 0.0 0.0 0.00 0.03 0.03 80 1011.8
20260906044516 28 40 0.0 0.0 0.00 0.03 0.03 79 1011.8
20260906044015 28 40 0.0 0.0 0.00 0.03 0.03 79 1011.7
20260906043527 28 40 0.0 0.0 0.00 0.03 0.03 79 1011.7
20260906043029 28 40 0.0 0.0 0.00 0.03 0.03 79 1011.7
20260906042537 28 40 0.0 0.0 0.00 0.03 0.03 78 1011.8
20260906042042 28 40 0.0 0.0 0.00 0.03 0.03 78 1011.7
20260906041550 28 40 0.0 0.0 0.00 0.03 0.03 78 1011.8
20260906041056 28 40 0.0 0.0 0.00 0.03 0.03 77 1011.7
20260906040604 28 40 0.0 0.0 0.00 0.03 0.03 77 1011.7
20260906040007 28 40 0.0 0.0 0.00 0.03 0.03 76 1011.7
20260906035514 28 40 0.0 0.0 0.00 0.03 0.03 76 1011.7
20260906035015 28 40 0.0 0.0 0.00 0.03 0.03 76 1011.7
20260906034523 28 40 0.0 0.0 0.00 0.03 0.03 76 1011.7
20260906034028 28 40 0.0 0.0 0.00 0.03 0.03 75 1011.7
20260906033535 28 40 0.0 1.6 0.00 0.03 0.03 75 1011.8
20260906033045 29 40 0.0 1.6 0.00 0.03 0.03 75 1011.7
20260906032551 29 40 0.0 0.0 0.00 0.03 0.03 75 1011.7
20260906032057 29 40 0.0 0.0 0.00 0.03 0.03 75 1011.7
20260906031605 29 40 0.0 0.0 0.00 0.03 0.03 74 1011.6
20260906031052 29 40 0.0 0.0 0.00 0.03 0.03 74 1011.7
20260906030544 29 40 0.0 0.0 0.00 0.03 0.03 73 1011.5
20260906030053 29 40 0.0 0.0 0.00 0.03 0.03 73 1011.7
20260906025542 29 40 0.0 0.0 0.00 0.03 0.03 73 1011.7
20260906025050 29 40 0.0 1.6 0.00 0.03 0.03 73 1011.6
20260906024602 30 40 0.0 1.6 0.00 0.03 0.03 72 1011.7
20260906024002 30 40 0.0 0.0 0.00 0.03 0.03 71 1011.7
20260906023509 30 40 0.0 0.0 0.00 0.03 0.03 71 1011.6
20260906023102 30 40 0.0 0.0 0.00 0.03 0.03 71 1011.7
20260906022505 30 40 0.0 1.6 0.00 0.03 0.03 70 1011.6
20260906022011 30 40 0.0 1.6 0.00 0.03 0.03 70 1011.5
20260906021516 30 40 0.0 0.0 0.00 0.03 0.03 69 1011.5
20260906021021 30 40 0.0 0.0 0.00 0.03 0.03 69 1011.5
20260906020529 30 40 0.0 0.0 0.00 0.08 0.03 68 1011.4
20260906020048 30 40 0.0 0.0 0.00 0.08 0.03 67 1011.2
20260906015542 31 40 0.0 0.0 0.00 0.08 0.03 67 1011.2
20260906015050 31 40 0.0 0.0 0.00 0.08 0.03 66 1011.2
20260906014558 31 40 0.0 0.0 0.00 0.08 0.03 66 1011.1
20260906014103 31 40 0.0 0.0 0.00 0.08 0.03 65 1011.1
20260906013551 31 40 0.0 1.6 0.00 0.08 0.03 65 1011.0
20260906013100 31 40 0.0 1.6 0.00 0.08 0.03 65 1011.0
20260906012503 31 40 0.0 1.6 0.00 0.08 0.03 64 1011.0
20260906012057 31 42 0.0 1.6 0.00 0.08 0.03 64 1010.9
20260906011550 31 68 0.0 1.6 0.00 0.08 0.03 64 1010.8
20260906011058 32 68 0.0 0.0 0.00 0.08 0.03 63 1010.7
20260906010604 32 68 0.0 0.0 0.00 0.08 0.03 62 1010.7
20260906010005 32 68 0.0 0.0 0.00 0.08 0.03 62 1010.7
20260906005511 32 68 0.0 0.0 0.00 0.08 0.03 61 1010.6
20260906005018 32 68 0.0 0.0 0.00 0.08 0.03 61 1010.7
20260906004524 32 68 0.0 0.0 0.00 0.08 0.03 60 1010.7
20260906004029 33 68 0.0 1.6 0.00 0.08 0.03 59 1010.6
20260906003536 33 68 0.0 1.6 0.00 0.08 0.03 60 1010.7
20260906003046 33 76 0.0 1.6 0.00 0.08 0.03 58 1010.5
20260906002553 33 76 0.0 0.0 0.00 0.08 0.03 57 1010.6
20260906002100 34 76 0.0 0.0 0.00 0.08 0.03 56 1010.6
20260906001503 34 76 0.0 0.0 0.00 0.08 0.03 55 1010.5
20260906001010 34 76 0.0 0.0 0.00 0.08 0.03 54 1010.6
20260906000517 35 76 0.0 0.0 0.00 0.08 0.03 53 1010.6
20260906000025 35 76 0.0 0.0 0.00 0.08 0.03 52 1010.7
20260905235531 35 76 0.0 1.6 0.00 0.08 0.03 51 1010.7
20260905235038 35 76 0.0 4.8 0.00 0.08 0.03 51 1010.7
20260905234546 35 72 0.0 4.8 0.00 0.08 0.03 50 1010.6
20260905234053 35 75 0.0 3.2 0.00 0.08 0.03 50 1010.7
20260905233600 36 66 1.6 3.2 0.00 0.08 0.03 50 1010.7
20260905233004 36 94 0.0 4.8 0.00 0.08 0.03 50 1010.6
20260905232513 36 99 0.0 8.0 0.00 0.08 0.03 50 1010.7
20260905232015 36 72 0.0 9.7 0.00 0.08 0.03 50 1010.7
20260905231522 36 51 3.2 9.7 0.00 0.08 0.03 50 1010.7
20260905231028 36 71 1.6 11.3 0.00 0.08 0.03 49 1010.8
20260905230534 36 41 1.6 11.3 0.00 0.08 0.03 49 1010.8
20260905230040 36 55 3.2 8.0 0.00 0.08 0.03 49 1010.8
20260905225547 36 70 3.2 8.0 0.00 0.08 0.03 49 1010.8
20260905225054 36 69 0.0 9.7 0.00 0.08 0.03 49 1010.6
20260905224610 36 72 1.6 11.3 0.00 0.08 0.03 49 1010.7
20260905224004 36 82 4.8 11.3 0.00 0.08 0.03 49 1010.7
20260905223601 36 103 4.8 12.9 0.00 0.08 0.03 49 1010.8
20260905223015 37 80 4.8 12.9 0.00 0.08 0.03 49 1010.7
20260905222513 36 103 1.6 14.5 0.00 0.08 0.03 51 1010.8
20260905222104 36 15 6.4 14.5 0.00 0.08 0.03 50 1010.8
20260905221512 37 63 4.8 14.5 0.00 0.08 0.03 51 1010.8
20260905221012 37 98 6.4 14.5 0.00 0.08 0.03 50 1010.8
20260905220518 37 67 6.4 12.9 0.00 0.08 0.03 49 1010.8
20260905220027 37 56 4.8 12.9 0.00 0.08 0.03 49 1010.8
20260905215532 37 68 4.8 11.3 0.00 0.08 0.03 48 1010.9
20260905215038 37 84 1.6 8.0 0.00 0.08 0.03 46 1010.9
20260905214545 37 83 3.2 12.9 0.00 0.08 0.03 46 1010.8
20260905214050 38 92 3.2 12.9 0.00 0.08 0.03 46 1010.8
20260905213557 37 79 0.0 8.0 0.00 0.08 0.03 47 1010.8
20260905213110 37 84 1.6 11.3 0.00 0.08 0.03 47 1010.9
20260905212504 37 100 4.8 11.3 0.00 0.08 0.03 46 1011.0
20260905212012 37 79 6.4 14.5 0.00 0.08 0.03 47 1011.1
20260905211535 37 127 4.8 14.5 0.00 0.08 0.03 47 1011.0
20260905211026 37 74 6.4 16.1 0.00 0.08 0.03 47 1011.0
20260905210532 37 94 9.7 16.1 0.00 0.08 0.03 48 1011.1
20260905210057 37 58 4.8 11.3 0.00 0.08 0.03 47 1011.2
20260905205549 37 70 4.8 12.9 0.00 0.08 0.03 47 1011.2
20260905205056 37 82 4.8 14.5 0.00 0.08 0.03 47 1011.1
20260905204605 37 68 6.4 14.5 0.00 0.08 0.03 47 1011.2
20260905204007 36 104 8.0 16.1 0.00 0.08 0.03 48 1011.2
20260905203514 37 73 6.4 16.1 0.00 0.08 0.03 48 1011.4
20260905203022 37 65 4.8 12.9 0.00 0.08 0.03 48 1011.5
20260905202529 37 77 6.4 11.3 0.00 0.08 0.03 47 1011.6
20260905202036 38 79 3.2 9.7 0.00 0.08 0.03 46 1011.7
20260905201548 38 59 0.0 4.8 0.00 0.08 0.03 44 1011.7
20260905201051 38 117 1.6 11.3 0.00 0.08 0.03 46 1011.8
20260905200558 37 75 3.2 12.9 0.00 0.08 0.03 45 1011.7
20260905200001 38 39 1.6 8.0 0.00 0.08 0.03 45 1011.9
20260905195515 37 84 3.2 8.0 0.00 0.08 0.03 45 1012.0
20260905195018 37 123 1.6 12.9 0.00 0.08 0.03 48 1012.1
20260905194522 37 105 4.8 12.9 0.00 0.08 0.03 47 1012.1
20260905194026 37 278 3.2 11.3 0.00 0.08 0.03 46 1012.2
20260905193534 37 91 4.8 11.3 0.00 0.08 0.03 47 1012.3
20260905193039 37 68 1.6 9.7 0.00 0.08 0.03 48 1012.4
20260905192547 37 326 1.6 16.1 0.00 0.08 0.03 47 1012.4
20260905192056 38 117 1.6 16.1 0.00 0.08 0.03 46 1012.4
20260905191600 38 245 1.6 9.7 0.00 0.08 0.03 48 1012.4
20260905191002 37 105 1.6 12.9 0.00 0.08 0.03 48 1012.5
20260905190557 37 89 0.0 16.1 0.00 0.10 0.03 48 1012.6
20260905190002 37 77 4.8 16.1 0.00 0.10 0.03 48 1012.7
20260905185507 36 95 1.6 14.5 0.00 0.10 0.03 51 1012.8
20260905185015 37 134 4.8 11.3 0.00 0.10 0.03 49 1012.8
20260905184531 37 94 4.8 11.3 0.00 0.10 0.03 50 1012.8
20260905184028 37 85 1.6 9.7 0.00 0.10 0.03 51 1012.9
20260905183532 36 243 1.6 9.7 0.00 0.10 0.03 51 1012.8
20260905183040 36 297 0.0 12.9 0.00 0.10 0.03 51 1013.0
20260905182547 37 79 4.8 12.9 0.00 0.10 0.03 51 1013.1
20260905182054 36 117 0.0 11.3 0.00 0.10 0.03 52 1013.1
20260905181601 37 76 3.2 8.0 0.00 0.10 0.03 51 1013.1
20260905181003 37 352 3.2 8.0 0.00 0.10 0.03 51 1013.1
20260905180559 37 319 1.6 8.0 0.00 0.10 0.03 52 1013.2
20260905180112 36 345 0.0 6.4 0.00 0.10 0.03 52 1013.2
20260905175506 36 270 0.0 6.4 0.00 0.10 0.03 52 1013.3
20260905175055 36 349 1.6 4.8 0.00 0.10 0.03 53 1013.3
20260905174607 36 34 0.0 11.3 0.00 0.10 0.03 53 1013.4
20260905174004 36 297 3.2 11.3 0.00 0.10 0.03 53 1013.4
20260905173601 36 293 1.6 12.9 0.00 0.10 0.03 52 1013.4
20260905173004 36 266 6.4 12.9 0.00 0.10 0.03 53 1013.5
20260905172557 36 320 1.6 8.0 0.00 0.10 0.03 54 1013.4
20260905172045 36 311 3.2 8.0 0.00 0.10 0.03 54 1013.5
20260905171603 36 310 3.2 9.7 0.00 0.10 0.03 53 1013.6
20260905171057 36 65 1.6 11.3 0.00 0.10 0.03 54 1013.8
20260905170501 36 75 0.0 8.0 0.00 0.10 0.03 54 1013.7
20260905170007 36 276 1.6 9.7 0.00 0.10 0.03 56 1013.8
20260905165603 35 321 1.6 11.3 0.00 0.10 0.03 55 1013.8
20260905165005 35 74 6.4 11.3 0.00 0.10 0.03 55 1013.9
20260905164513 35 303 1.6 8.0 0.00 0.10 0.03 57 1014.0
20260905164013 35 342 3.2 8.0 0.00 0.10 0.03 58 1014.1
20260905163520 35 316 1.6 6.4 0.00 0.10 0.03 58 1014.2
20260905163027 35 74 0.0 6.4 0.00 0.10 0.03 58 1014.1
20260905162536 35 122 0.0 6.4 0.00 0.10 0.03 58 1014.2
20260905162039 34 96 1.6 9.7 0.00 0.10 0.03 60 1014.3
20260905161546 34 85 4.8 11.3 0.00 0.10 0.03 61 1014.3
20260905161052 34 107 4.8 11.3 0.00 0.10 0.03 61 1014.3
20260905160559 33 286 1.6 11.3 0.00 0.10 0.03 64 1014.2
20260905155554 33 89 3.2 11.3 0.00 0.10 0.03 62 1014.4
20260905155101 33 328 0.0 6.4 0.00 0.10 0.03 63 1014.4
20260905154504 33 84 1.6 6.4 0.00 0.10 0.03 63 1014.4
20260905154103 33 100 1.6 4.8 0.00 0.10 0.03 64 1014.4
20260905153502 32 91 0.0 4.8 0.00 0.10 0.03 65 1014.3
20260905153056 32 25 1.6 6.4 0.00 0.10 0.03 65 1014.4
20260905152602 32 60 1.6 6.4 0.00 0.10 0.03 66 1014.4
20260905152004 32 70 1.6 6.4 0.00 0.10 0.03 64 1014.5
20260905151559 32 101 0.0 6.4 0.00 0.10 0.03 64 1014.5
20260905151050 32 336 1.6 6.4 0.00 0.10 0.03 66 1014.5
20260905150558 32 301 0.0 4.8 0.00 0.10 0.03 67 1014.5
20260905150002 32 298 1.6 4.8 0.00 0.10 0.03 66 1014.5
20260905145509 32 321 0.0 3.2 0.00 0.10 0.03 67 1014.6
20260905145019 31 61 0.0 3.2 0.00 0.10 0.03 67 1014.5
20260905144536 31 307 0.0 4.8 0.00 0.10 0.03 67 1014.4
20260905144026 31 359 0.0 4.8 0.00 0.10 0.03 68 1014.4
20260905143534 31 78 1.6 4.8 0.00 0.10 0.03 69 1014.4
20260905143041 31 311 0.0 3.2 0.00 0.10 0.03 70 1014.4
20260905142548 31 321 0.0 3.2 0.00 0.10 0.03 70 1014.4
20260905142055 31 339 0.0 4.8 0.00 0.10 0.03 69 1014.5
20260905141602 30 208 0.0 4.8 0.00 0.10 0.03 71 1014.4
20260905141006 30 330 0.0 1.6 0.00 0.10 0.03 71 1014.4
20260905140511 30 323 0.0 0.0 0.00 0.10 0.03 71 1014.4
20260905140016 30 233 0.0 1.6 0.00 0.10 0.03 73 1014.3
20260905135521 30 240 0.0 1.6 0.00 0.10 0.03 73 1014.3
20260905135002 30 184 0.0 0.0 0.00 0.10 0.03 74 1014.3
20260905134510 30 161 0.0 1.6 0.00 0.10 0.03 74 1014.3
20260905134016 29 160 0.0 1.6 0.00 0.10 0.03 74 1014.4
20260905133524 29 238 0.0 1.6 0.00 0.10 0.03 75 1014.4
20260905133030 29 255 0.0 3.2 0.00 0.10 0.03 76 1014.4
20260905132539 29 300 0.0 3.2 0.00 0.10 0.03 75 1014.3
20260905132045 28 201 0.0 4.8 0.00 0.10 0.03 75 1014.2
20260905131555 28 160 0.0 4.8 0.00 0.10 0.03 75 1014.3
20260905131058 28 129 0.0 3.2 0.00 0.10 0.03 76 1014.2
20260905130605 28 186 0.0 0.0 0.00 0.10 0.03 78 1014.3
20260905130015 27 192 0.0 0.0 0.00 0.10 0.03 79 1014.3
20260905125604 27 198 0.0 0.0 0.00 0.10 0.03 79 1014.3
20260905125005 27 199 0.0 0.0 0.00 0.10 0.03 80 1014.3
20260905124514 27 199 0.0 0.0 0.00 0.10 0.03 82 1014.3
20260905124021 27 199 0.0 0.0 0.00 0.10 0.03 82 1014.3
20260905123524 27 199 0.0 0.0 0.00 0.10 0.03 82 1014.2
20260905123028 26 199 0.0 0.0 0.00 0.10 0.03 83 1014.1
20260905122537 26 199 0.0 0.0 0.00 0.10 0.03 84 1014.1
20260905122042 26 199 0.0 0.0 0.00 0.10 0.03 85 1014.1
20260905121548 25 199 0.0 0.0 0.00 0.10 0.03 86 1014.0
20260905121054 25 199 0.0 0.0 0.00 0.10 0.03 87 1014.0
20260905120602 25 199 0.0 0.0 0.00 0.10 0.03 87 1014.0
20260905120002 25 199 0.0 0.0 0.00 0.10 0.03 87 1014.0
20260905115558 25 199 0.0 0.0 0.00 0.10 0.03 87 1014.0
20260905115002 25 199 0.0 0.0 0.00 0.10 0.03 87 1014.0
20260905114510 25 199 0.0 0.0 0.00 0.10 0.03 87 1013.9
20260905114012 25 199 0.0 0.0 0.00 0.10 0.03 87 1013.8
20260905113526 25 199 0.0 0.0 0.00 0.10 0.03 87 1013.8
20260905113025 25 199 0.0 0.0 0.00 0.10 0.03 87 1013.6
20260905112531 25 199 0.0 0.0 0.00 0.10 0.03 87 1013.7
20260905112036 25 199 0.0 0.0 0.00 0.10 0.03 86 1013.7
20260905111544 25 199 0.0 0.0 0.00 0.10 0.03 86 1013.7
20260905111050 25 199 0.0 0.0 0.00 0.10 0.03 86 1013.6
20260905110540 25 199 0.0 0.0 0.00 0.10 0.03 86 1013.6
20260905110028 25 199 0.0 0.0 0.00 0.10 0.03 86 1013.6
20260905105536 25 199 0.0 0.0 0.00 0.10 0.03 86 1013.6
20260905105042 25 199 0.0 0.0 0.00 0.10 0.03 86 1013.6
20260905104551 25 199 0.0 0.0 0.00 0.10 0.03 85 1013.6
20260905104056 25 199 0.0 0.0 0.03 0.10 0.03 85 1013.6
20260905103600 25 199 0.0 0.0 0.03 0.10 0.03 85 1013.6
20260905103002 26 199 0.0 0.0 0.03 0.10 0.03 85 1013.5
20260905102600 26 199 0.0 0.0 0.03 0.10 0.03 84 1013.5
20260905102001 26 199 0.0 0.0 0.03 0.10 0.03 84 1013.4
20260905101509 26 199 0.0 0.0 0.03 0.10 0.03 85 1013.4
20260905101011 26 199 0.0 0.0 0.03 0.10 0.03 85 1013.4
20260905100518 26 199 0.0 0.0 0.03 0.10 0.03 85 1013.5
20260905100025 26 199 0.0 0.0 0.03 0.10 0.03 84 1013.5
20260905095531 26 199 0.0 0.0 0.03 0.10 0.03 84 1013.6
20260905095039 26 199 0.0 0.0 0.03 0.10 0.03 84 1013.5
20260905094600 26 199 0.0 0.0 0.03 0.10 0.03 84 1013.5
20260905094056 26 199 0.0 0.0 0.00 0.08 0.00 84 1013.5
20260905093544 26 199 0.0 0.0 0.00 0.08 0.00 84 1013.4
20260905093050 26 199 0.0 0.0 0.00 0.08 0.00 83 1013.4
20260905092558 26 199 0.0 0.0 0.00 0.08 0.00 83 1013.4
20260905092104 26 199 0.0 0.0 0.00 0.08 0.00 83 1013.4
20260905091606 26 199 0.0 0.0 0.00 0.08 0.00 83 1013.5
20260905091103 26 199 0.0 0.0 0.00 0.08 0.00 83 1013.5
20260905090506 26 199 0.0 0.0 0.00 0.10 0.00 82 1013.5
20260905090019 26 199 0.0 0.0 0.00 0.10 0.00 82 1013.4
20260905085520 26 199 0.0 0.0 0.00 0.10 0.00 82 1013.4
20260905085030 26 199 0.0 0.0 0.00 0.10 0.00 82 1013.4
20260905084540 26 199 0.0 0.0 0.00 0.10 0.00 82 1013.4
20260905084042 26 199 0.0 0.0 0.00 0.10 0.00 82 1013.3
20260905083550 26 199 0.0 0.0 0.00 0.10 0.00 82 1013.3
20260905083057 26 199 0.0 0.0 0.00 0.10 0.00 81 1013.4
20260905082606 26 199 0.0 0.0 0.00 0.10 0.00 82 1013.4
20260905082056 26 199 0.0 0.0 0.00 0.10 0.00 81 1013.5
20260905081553 26 199 0.0 0.0 0.00 0.10 0.00 81 1013.5
20260905081050 26 199 0.0 0.0 0.00 0.10 0.00 81 1013.5
20260905080544 26 199 0.0 0.0 0.00 0.10 0.00 80 1013.5
20260905080057 27 199 0.0 0.0 0.00 0.10 0.00 80 1013.5
20260905075559 27 199 0.0 0.0 0.00 0.10 0.00 80 1013.6
20260905075104 27 199 0.0 0.0 0.00 0.10 0.00 80 1013.6
20260905074507 27 199 0.0 0.0 0.00 0.10 0.00 79 1013.5
20260905074015 27 199 0.0 0.0 0.00 0.10 0.00 79 1013.5
20260905073522 27 199 0.0 0.0 0.00 0.10 0.00 79 1013.6
20260905073039 27 199 0.0 0.0 0.00 0.10 0.00 78 1013.5
20260905072536 27 199 0.0 0.0 0.00 0.10 0.00 78 1013.5
20260905072044 27 198 0.0 0.0 0.00 0.10 0.00 78 1013.6
20260905071559 27 199 0.0 0.0 0.00 0.10 0.00 78 1013.6
20260905071102 27 199 0.0 0.0 0.00 0.10 0.00 77 1013.6
20260905070504 27 199 0.0 0.0 0.00 0.10 0.00 77 1013.6
20260905070010 27 199 0.0 0.0 0.00 0.10 0.00 77 1013.6